N649BW KMSP-KOMA

Flight info

Callsign N649BW
Flight time 0h 58m
Altitude 24000
Route ORSKY3 ORSKY DABOY LANTK2
Aircraft SF50/L-BDGRSWY/LB2U2

Departure

Time 2026-04-22 04:41
Airport Minneapolis–Saint Paul International Airport / Wold–Chamberlain Field (KMSP)

Arrival

Time 2026-04-22 05:39
Airport Eppley Airfield (KOMA)
Time Latitude Longitude Altitude Speed Heading
2026-04-22 04:25 44.87813 -93.21934 819 ft 0 kts 180°
2026-04-22 04:35 44.87783 -93.21924 819 ft 8 kts 120°
2026-04-22 04:35 44.87764 -93.21811 819 ft 15 kts 102°
2026-04-22 04:36 44.87752 -93.21675 819 ft 12 kts 96°
2026-04-22 04:36 44.87773 -93.21578 819 ft 9 kts 50°
2026-04-22 04:36 44.87789 -93.21552 819 ft 0 kts 49°
2026-04-22 04:37 44.87799 -93.21536 819 ft 7 kts 49°
2026-04-22 04:37 44.87795 -93.21439 818 ft 16 kts 123°
2026-04-22 04:38 44.87719 -93.21266 819 ft 25 kts 121°
2026-04-22 04:38 44.87630 -93.21058 819 ft 24 kts 119°
2026-04-22 04:38 44.87542 -93.20859 819 ft 25 kts 120°
2026-04-22 04:38 44.87461 -93.20703 818 ft 15 kts 141°
2026-04-22 04:39 44.87380 -93.20620 819 ft 11 kts 134°
2026-04-22 04:39 44.87338 -93.20533 819 ft 14 kts 121°
2026-04-22 04:39 44.87270 -93.20382 819 ft 21 kts 120°
2026-04-22 04:39 44.87250 -93.20228 820 ft 17 kts 40°
2026-04-22 04:40 44.87356 -93.20151 821 ft 17 kts 338°
2026-04-22 04:40 44.87452 -93.20352 818 ft 45 kts 301°
2026-04-22 04:40 44.87758 -93.21036 891 ft 111 kts 300°
2026-04-22 04:40 44.87990 -93.22202 1294 ft 137 kts 276°
2026-04-22 04:41 44.87931 -93.23648 1605 ft 161 kts 262°
2026-04-22 04:41 44.87771 -93.25300 2018 ft 176 kts 263°
2026-04-22 04:41 44.87620 -93.27073 2425 ft 188 kts 262°
2026-04-22 04:41 44.87402 -93.28944 2748 ft 201 kts 261°
2026-04-22 04:42 44.87196 -93.30893 3328 ft 197 kts 262°
2026-04-22 04:42 44.87020 -93.32779 4049 ft 194 kts 263°
2026-04-22 04:42 44.86820 -93.34663 4620 ft 197 kts 262°
2026-04-22 04:42 44.86581 -93.36611 5104 ft 203 kts 262°
2026-04-22 04:43 44.86170 -93.38527 5544 ft 213 kts 246°
2026-04-22 04:43 44.85245 -93.40176 6079 ft 216 kts 224°
2026-04-22 04:43 44.83985 -93.41363 6536 ft 222 kts 212°
2026-04-22 04:43 44.82622 -93.42425 7003 ft 224 kts 211°
2026-04-22 04:44 44.81281 -93.43490 7575 ft 221 kts 213°
2026-04-22 04:44 44.79931 -93.44617 7923 ft 229 kts 214°
2026-04-22 04:44 44.78586 -93.45790 8454 ft 227 kts 215°
2026-04-22 04:44 44.77259 -93.46951 9044 ft 224 kts 216°
2026-04-22 04:45 44.75935 -93.48101 9534 ft 227 kts 215°
2026-04-22 04:45 44.74499 -93.49130 10055 ft 225 kts 208°
2026-04-22 04:45 44.73109 -93.49997 10867 ft 212 kts 208°
2026-04-22 04:45 44.71751 -93.50816 11439 ft 215 kts 208°
2026-04-22 04:46 44.70399 -93.51732 11934 ft 217 kts 212°
2026-04-22 04:46 44.69014 -93.52644 12439 ft 222 kts 210°
2026-04-22 04:46 44.67614 -93.53538 12957 ft 209 kts 210°
2026-04-22 04:46 44.66452 -93.54222 13440 ft 155 kts 210°
2026-04-22 04:47 44.65491 -93.54740 13462 ft 157 kts 210°
2026-04-22 04:47 44.64419 -93.55329 13877 ft 164 kts 210°
2026-04-22 04:47 44.63335 -93.55931 14368 ft 170 kts 210°
2026-04-22 04:47 44.62183 -93.56583 14674 ft 188 kts 211°
2026-04-22 04:48 44.60945 -93.57391 14945 ft 205 kts 213°
2026-04-22 04:48 44.59617 -93.58297 15207 ft 220 kts 213°
2026-04-22 04:48 44.58207 -93.59274 15466 ft 232 kts 213°
2026-04-22 04:48 44.56736 -93.60305 15725 ft 241 kts 213°
2026-04-22 04:49 44.55218 -93.61376 16016 ft 246 kts 213°
2026-04-22 04:49 44.53685 -93.62456 16348 ft 248 kts 213°
2026-04-22 04:49 44.52141 -93.63542 16678 ft 249 kts 213°
2026-04-22 04:49 44.50591 -93.64628 17016 ft 249 kts 213°
2026-04-22 04:50 44.49055 -93.65749 17351 ft 249 kts 215°
2026-04-22 04:50 44.47530 -93.66895 17695 ft 249 kts 215°
2026-04-22 04:50 44.46005 -93.68040 18040 ft 249 kts 215°
2026-04-22 04:50 44.44481 -93.69179 18371 ft 248 kts 215°
2026-04-22 04:51 44.42974 -93.70302 18667 ft 248 kts 215°
2026-04-22 04:51 44.41436 -93.71457 18971 ft 246 kts 217°
2026-04-22 04:51 44.40048 -93.72764 19272 ft 242 kts 224°
2026-04-22 04:51 44.38691 -93.74159 19584 ft 242 kts 224°
2026-04-22 04:52 44.37337 -93.75557 19891 ft 242 kts 224°
2026-04-22 04:52 44.35983 -93.76949 20208 ft 242 kts 224°
2026-04-22 04:52 44.34625 -93.78338 20516 ft 241 kts 224°
2026-04-22 04:52 44.33269 -93.79720 20838 ft 241 kts 224°
2026-04-22 04:53 44.31915 -93.81094 21181 ft 240 kts 224°
2026-04-22 04:53 44.30572 -93.82446 21576 ft 237 kts 224°
2026-04-22 04:53 44.29241 -93.83775 21995 ft 234 kts 224°
2026-04-22 04:53 44.27918 -93.85082 22410 ft 232 kts 223°
2026-04-22 04:54 44.26526 -93.86244 22832 ft 234 kts 217°
2026-04-22 04:54 44.25083 -93.87289 23259 ft 232 kts 217°
2026-04-22 04:54 44.23670 -93.88352 23669 ft 230 kts 218°
2026-04-22 04:54 44.22275 -93.89431 23972 ft 231 kts 218°
2026-04-22 04:55 44.20825 -93.90555 23988 ft 245 kts 218°
2026-04-22 04:55 44.19293 -93.91723 23998 ft 256 kts 217°
2026-04-22 04:55 44.17700 -93.92930 24000 ft 264 kts 217°
2026-04-22 04:55 44.16066 -93.94176 23999 ft 271 kts 217°
2026-04-22 04:56 44.14393 -93.95450 23991 ft 277 kts 216°
2026-04-22 04:56 44.12690 -93.96747 23994 ft 282 kts 216°
2026-04-22 04:56 44.10952 -93.98069 23996 ft 287 kts 216°
2026-04-22 04:56 44.09204 -93.99396 23995 ft 286 kts 216°
2026-04-22 04:57 44.07465 -94.00717 23994 ft 284 kts 216°
2026-04-22 04:57 44.05738 -94.02030 23991 ft 283 kts 216°
2026-04-22 04:57 44.04010 -94.03347 23989 ft 284 kts 216°
2026-04-22 04:57 44.02274 -94.04663 23989 ft 285 kts 216°
2026-04-22 04:58 44.00530 -94.05984 23988 ft 286 kts 216°
2026-04-22 04:58 43.98781 -94.07312 23988 ft 287 kts 216°
2026-04-22 04:58 43.97035 -94.08632 23987 ft 286 kts 216°
2026-04-22 04:58 43.95294 -94.09948 23973 ft 284 kts 216°
2026-04-22 04:59 43.93561 -94.11259 23970 ft 283 kts 216°
2026-04-22 04:59 43.91823 -94.12573 23973 ft 285 kts 216°
2026-04-22 04:59 43.90083 -94.13888 23971 ft 286 kts 216°
2026-04-22 04:59 43.88335 -94.15209 23974 ft 287 kts 216°
2026-04-22 05:00 43.86580 -94.16533 23976 ft 287 kts 216°
2026-04-22 05:00 43.84829 -94.17850 23976 ft 286 kts 216°
2026-04-22 05:00 43.83086 -94.19164 23975 ft 285 kts 216°
2026-04-22 05:00 43.81349 -94.20471 23975 ft 284 kts 216°
2026-04-22 05:01 43.79608 -94.21785 23978 ft 285 kts 216°
2026-04-22 05:01 43.77861 -94.23097 23980 ft 286 kts 216°
2026-04-22 05:01 43.76107 -94.24412 23982 ft 287 kts 216°
2026-04-22 05:01 43.74348 -94.25730 23977 ft 287 kts 216°
2026-04-22 05:02 43.72589 -94.27052 23971 ft 288 kts 216°
2026-04-22 05:02 43.70824 -94.28374 23972 ft 289 kts 216°
2026-04-22 05:02 43.69061 -94.29692 23972 ft 287 kts 216°
2026-04-22 05:02 43.67310 -94.31003 23971 ft 286 kts 216°
2026-04-22 05:03 43.65565 -94.32307 23972 ft 284 kts 216°
2026-04-22 05:03 43.63821 -94.33615 23972 ft 287 kts 216°
2026-04-22 05:03 43.62063 -94.34930 23973 ft 289 kts 216°
2026-04-22 05:03 43.60298 -94.36243 23974 ft 287 kts 216°
2026-04-22 05:04 43.58544 -94.37552 23973 ft 286 kts 216°
2026-04-22 05:04 43.56798 -94.38856 23972 ft 285 kts 216°
2026-04-22 05:04 43.55056 -94.40155 23971 ft 285 kts 216°
2026-04-22 05:04 43.53306 -94.41461 23973 ft 287 kts 216°
2026-04-22 05:05 43.51545 -94.42771 23977 ft 289 kts 216°
2026-04-22 05:05 43.49773 -94.44089 23979 ft 289 kts 216°
2026-04-22 05:05 43.48011 -94.45395 23978 ft 287 kts 215°
2026-04-22 05:05 43.46253 -94.46700 23977 ft 286 kts 216°
2026-04-22 05:06 43.44503 -94.47999 23973 ft 286 kts 216°
2026-04-22 05:06 43.42753 -94.49299 23974 ft 287 kts 216°
2026-04-22 05:06 43.40994 -94.50602 23974 ft 288 kts 215°
2026-04-22 05:06 43.39228 -94.51908 23975 ft 289 kts 215°
2026-04-22 05:07 43.37458 -94.53220 23972 ft 289 kts 215°
2026-04-22 05:07 43.35687 -94.54528 23973 ft 288 kts 215°
2026-04-22 05:07 43.33925 -94.55832 23956 ft 287 kts 215°
2026-04-22 05:07 43.32174 -94.57126 23967 ft 286 kts 215°
2026-04-22 05:08 43.30421 -94.58422 23963 ft 286 kts 215°
2026-04-22 05:08 43.28663 -94.59719 23964 ft 288 kts 215°
2026-04-22 05:08 43.27084 -94.60883 23964 ft 0 kts 215°
2026-04-22 05:08 43.25781 -94.62030 23959 ft 283 kts 216°
2026-04-22 05:09 43.23994 -94.63229 23966 ft 287 kts 212°
2026-04-22 05:09 43.22185 -94.64436 23967 ft 290 kts 214°
2026-04-22 05:09 43.20427 -94.65758 23969 ft 287 kts 216°
2026-04-22 05:09 43.18683 -94.67081 23968 ft 286 kts 216°
2026-04-22 05:10 43.16932 -94.68358 23967 ft 285 kts 215°
2026-04-22 05:10 43.15175 -94.69638 23967 ft 287 kts 215°
2026-04-22 05:10 43.13413 -94.70933 23968 ft 288 kts 215°
2026-04-22 05:10 43.11645 -94.72230 23968 ft 289 kts 215°
2026-04-22 05:11 43.09871 -94.73530 23962 ft 289 kts 215°
2026-04-22 05:11 43.08103 -94.74824 23964 ft 287 kts 215°
2026-04-22 05:11 43.06343 -94.76111 23962 ft 286 kts 215°
2026-04-22 05:11 43.04594 -94.77392 23962 ft 286 kts 215°
2026-04-22 05:12 43.03429 -94.78245 23963 ft 287 kts 215°
2026-04-22 05:12 43.01659 -94.79538 23963 ft 289 kts 215°
2026-04-22 05:12 42.99885 -94.80831 23965 ft 289 kts 215°
2026-04-22 05:12 42.98116 -94.82121 23965 ft 288 kts 215°
2026-04-22 05:13 42.96352 -94.83404 23962 ft 286 kts 215°
2026-04-22 05:13 42.94600 -94.84682 23960 ft 285 kts 215°
2026-04-22 05:13 42.92843 -94.85961 23963 ft 287 kts 215°
2026-04-22 05:13 42.91075 -94.87247 23959 ft 288 kts 215°
2026-04-22 05:14 42.89306 -94.88533 23962 ft 289 kts 214°
2026-04-22 05:14 42.87528 -94.89823 23965 ft 289 kts 214°
2026-04-22 05:14 42.85755 -94.91109 23967 ft 288 kts 214°
2026-04-22 05:14 42.83991 -94.92390 23960 ft 287 kts 215°
2026-04-22 05:15 42.82234 -94.93667 23963 ft 286 kts 215°
2026-04-22 05:15 42.80475 -94.94940 23963 ft 287 kts 215°
2026-04-22 05:15 42.78714 -94.96218 23962 ft 288 kts 214°
2026-04-22 05:15 42.76940 -94.97501 23967 ft 289 kts 214°
2026-04-22 05:16 42.75161 -94.98789 23967 ft 290 kts 214°
2026-04-22 05:16 42.73385 -95.00071 23965 ft 288 kts 214°
2026-04-22 05:16 42.71617 -95.01346 23966 ft 287 kts 214°
2026-04-22 05:16 42.69857 -95.02616 23963 ft 286 kts 214°
2026-04-22 05:17 42.68096 -95.03887 23961 ft 288 kts 214°
2026-04-22 05:17 42.66327 -95.05163 24001 ft 287 kts 214°
2026-04-22 05:17 42.64555 -95.06438 24005 ft 289 kts 214°
2026-04-22 05:17 42.62774 -95.07721 24007 ft 289 kts 214°
2026-04-22 05:18 42.59208 -95.10286 23696 ft 289 kts 214°
2026-04-22 05:18 42.57433 -95.11559 23458 ft 287 kts 214°
2026-04-22 05:18 42.55670 -95.12826 23185 ft 286 kts 214°
2026-04-22 05:19 42.53898 -95.14103 22452 ft 298 kts 214°
2026-04-22 05:19 42.52038 -95.15447 21446 ft 301 kts 214°
2026-04-22 05:19 42.50183 -95.16764 19873 ft 303 kts 213°
2026-04-22 05:19 42.48343 -95.18073 18695 ft 292 kts 213°
2026-04-22 05:20 42.46558 -95.19351 17132 ft 289 kts 213°
2026-04-22 05:20 42.44823 -95.20598 16081 ft 276 kts 213°
2026-04-22 05:20 42.43180 -95.21763 16000 ft 270 kts 213°
2026-04-22 05:20 42.41500 -95.22979 16006 ft 276 kts 213°
2026-04-22 05:21 42.39791 -95.24198 16004 ft 279 kts 213°
2026-04-22 05:21 42.38060 -95.25429 16001 ft 283 kts 213°
2026-04-22 05:21 42.36313 -95.26672 16001 ft 285 kts 213°
2026-04-22 05:21 42.34560 -95.27923 16001 ft 286 kts 213°
2026-04-22 05:22 42.32793 -95.29181 16001 ft 287 kts 213°
2026-04-22 05:22 42.31022 -95.30441 16000 ft 288 kts 213°
2026-04-22 05:22 42.29246 -95.31704 15999 ft 289 kts 213°
2026-04-22 05:22 42.27475 -95.32962 15992 ft 286 kts 213°
2026-04-22 05:23 42.25714 -95.34215 15986 ft 286 kts 213°
2026-04-22 05:23 42.23951 -95.35466 15985 ft 286 kts 213°
2026-04-22 05:23 42.22190 -95.36715 15985 ft 286 kts 213°
2026-04-22 05:23 42.20426 -95.37965 15985 ft 286 kts 213°
2026-04-22 05:24 42.18663 -95.39213 15998 ft 286 kts 213°
2026-04-22 05:24 42.16898 -95.40463 15999 ft 286 kts 212°
2026-04-22 05:24 42.15075 -95.41561 15998 ft 289 kts 206°
2026-04-22 05:24 42.13188 -95.42507 16000 ft 290 kts 205°
2026-04-22 05:25 42.11291 -95.43429 16002 ft 290 kts 204°
2026-04-22 05:25 42.09378 -95.44320 16004 ft 291 kts 204°
2026-04-22 05:25 42.07459 -95.45204 16005 ft 292 kts 204°
2026-04-22 05:25 42.05537 -95.46087 16007 ft 292 kts 204°
2026-04-22 05:26 42.03609 -95.46978 16006 ft 294 kts 204°
2026-04-22 05:26 42.01676 -95.47873 16007 ft 294 kts 204°
2026-04-22 05:26 41.99737 -95.48769 16007 ft 294 kts 204°
2026-04-22 05:26 41.97807 -95.49662 16007 ft 293 kts 204°
2026-04-22 05:27 41.95898 -95.50597 16006 ft 291 kts 205°
2026-04-22 05:27 41.94004 -95.51557 16003 ft 291 kts 205°
2026-04-22 05:27 41.92106 -95.52510 16003 ft 292 kts 205°
2026-04-22 05:27 41.90192 -95.53448 16002 ft 293 kts 205°
2026-04-22 05:28 41.88272 -95.54389 16000 ft 294 kts 205°
2026-04-22 05:28 41.86351 -95.55333 15999 ft 294 kts 205°
2026-04-22 05:28 41.84449 -95.56334 15994 ft 293 kts 206°
2026-04-22 05:28 41.82557 -95.57359 15992 ft 294 kts 206°
2026-04-22 05:29 41.80656 -95.58395 15827 ft 298 kts 206°
2026-04-22 05:29 41.78762 -95.59428 15458 ft 291 kts 206°
2026-04-22 05:29 41.76897 -95.60455 15089 ft 289 kts 207°
2026-04-22 05:29 41.75051 -95.61509 14611 ft 286 kts 207°
2026-04-22 05:30 41.73239 -95.62557 14136 ft 282 kts 207°
2026-04-22 05:30 41.71450 -95.63600 13645 ft 279 kts 207°
2026-04-22 05:30 41.69685 -95.64636 13126 ft 276 kts 207°
2026-04-22 05:30 41.67946 -95.65689 12618 ft 273 kts 208°
2026-04-22 05:31 41.66254 -95.66802 12106 ft 269 kts 211°
2026-04-22 05:31 41.64683 -95.68126 11612 ft 266 kts 217°
2026-04-22 05:31 41.63179 -95.69557 11128 ft 265 kts 218°
2026-04-22 05:31 41.61700 -95.71005 10649 ft 262 kts 218°
2026-04-22 05:32 41.60258 -95.72452 10169 ft 256 kts 219°
2026-04-22 05:32 41.58853 -95.73885 9689 ft 253 kts 218°
2026-04-22 05:32 41.57465 -95.75323 9178 ft 252 kts 219°
2026-04-22 05:32 41.56095 -95.76751 8670 ft 248 kts 219°
2026-04-22 05:33 41.54737 -95.78166 8181 ft 247 kts 219°
2026-04-22 05:33 41.53431 -95.79534 7690 ft 231 kts 219°
2026-04-22 05:33 41.52198 -95.80831 7206 ft 222 kts 219°
2026-04-22 05:33 41.51012 -95.82082 6702 ft 212 kts 219°
2026-04-22 05:34 41.49880 -95.83261 6218 ft 202 kts 218°
2026-04-22 05:34 41.48804 -95.84377 5959 ft 185 kts 218°
2026-04-22 05:34 41.47805 -95.85345 5762 ft 174 kts 214°
2026-04-22 05:34 41.46786 -95.86204 5404 ft 173 kts 212°
2026-04-22 05:35 41.45694 -95.86988 4785 ft 186 kts 206°
2026-04-22 05:35 41.44511 -95.87704 4197 ft 191 kts 206°
2026-04-22 05:35 41.43298 -95.88393 3817 ft 185 kts 203°
2026-04-22 05:35 41.42123 -95.88968 3497 ft 178 kts 202°
2026-04-22 05:36 41.40888 -95.89363 2833 ft 186 kts 192°
2026-04-22 05:36 41.39669 -95.89676 2561 ft 167 kts 203°
2026-04-22 05:36 41.38656 -95.90210 2517 ft 152 kts 204°
2026-04-22 05:36 41.37679 -95.90736 2375 ft 153 kts 205°
2026-04-22 05:37 41.36784 -95.91328 2319 ft 124 kts 217°
2026-04-22 05:37 41.36045 -95.91920 2054 ft 126 kts 206°
2026-04-22 05:37 41.35199 -95.92229 2015 ft 125 kts 194°
2026-04-22 05:37 41.34299 -95.92296 1795 ft 134 kts 180°
2026-04-22 05:38 41.33363 -95.91950 1558 ft 140 kts 162°
2026-04-22 05:38 41.32540 -95.91243 1298 ft 141 kts 144°
2026-04-22 05:38 41.31808 -95.90459 1156 ft 125 kts 146°
2026-04-22 05:38 41.31132 -95.89823 993 ft 109 kts 147°
2026-04-22 05:39 41.30624 -95.89354 981 ft 70 kts 148°
2026-04-22 05:39 41.30322 -95.89067 983 ft 31 kts 137°
2026-04-22 05:39 41.30287 -95.88959 978 ft 5 kts 74°
2026-04-22 05:39 41.30292 -95.88939 978 ft 0 kts 69°
2026-04-22 05:40 41.30304 -95.88915 982 ft 10 kts 53°
2026-04-22 05:40 41.30351 -95.88776 979 ft 23 kts 79°
2026-04-22 05:40 41.30408 -95.88586 981 ft 17 kts 22°
2026-04-22 05:40 41.30502 -95.88583 979 ft 0 kts 329°